| time (UTC) | temp F | wind direction | speed MPH | gust MPH | rain 1hr in | rain 24hr in | rain mn in | humidity % | barometer mb |
| 20260508020218 | 0 | 0.0 | 0.0 | 0.00 | 0.00 | 0.00 | |||
| 20260508014718 | 81 | 135 | 3.0 | 4.0 | 0.00 | 0.00 | 0.00 | 77 | 1013.8 |
| 20260508013219 | 82 | 135 | 3.0 | 5.0 | 0.00 | 0.00 | 0.00 | 77 | 1013.6 |
| 20260508011718 | 82 | 1.0 | 3.0 | 0.00 | 0.00 | 0.00 | 77 | 1013.5 | |
| 20260508010217 | 81 | 225 | 1.0 | 3.0 | 0.00 | 0.00 | 0.00 | 80 | 1013.5 |
| 20260508004717 | 82 | 225 | 1.0 | 3.0 | 0.00 | 0.00 | 0.00 | 80 | 1013.5 |
| 20260508003219 | 0 | 0.0 | 0.0 | 0.00 | 0.00 | 0.00 | |||
| 20260508001718 | 80 | 225 | 1.0 | 3.0 | 0.00 | 0.00 | 0.00 | 86 | 1013.3 |
| 20260508000219 | 80 | 225 | 0.0 | 2.0 | 0.00 | 0.00 | 0.00 | 87 | 1013.3 |
| 20260507234717 | 79 | 180 | 0.0 | 1.0 | 0.00 | 0.00 | 0.00 | 90 | 1013.2 |
| 20260507233217 | 78 | 0.0 | 0.0 | 0.00 | 0.00 | 0.00 | 89 | 1012.8 | |
| 20260507231717 | 0 | 0.0 | 0.0 | 0.00 | 0.00 | 0.00 | |||
| 20260507230218 | 76 | 135 | 1.0 | 3.0 | 0.00 | 0.00 | 0.00 | 92 | 1012.6 |
| 20260507224717 | 75 | 135 | 2.0 | 3.0 | 0.00 | 0.00 | 0.00 | 91 | 1012.3 |
| 20260507223219 | 74 | 180 | 2.0 | 3.0 | 0.00 | 0.00 | 0.00 | 90 | 1012.3 |
| 20260507221718 | 74 | 180 | 2.0 | 3.0 | 0.00 | 0.00 | 0.00 | 89 | 1012.3 |
| 20260507220218 | 74 | 135 | 2.0 | 3.0 | 0.00 | 0.00 | 0.00 | 90 | 1012.0 |
| 20260507214718 | 74 | 135 | 3.0 | 3.0 | 0.00 | 0.00 | 0.00 | 89 | 1011.8 |
| 20260507213219 | 74 | 135 | 2.0 | 3.0 | 0.00 | 0.00 | 0.00 | 88 | 1011.7 |
| 20260507211717 | 74 | 135 | 1.0 | 3.0 | 0.00 | 0.00 | 0.00 | 88 | 1011.6 |
| 20260507210219 | 74 | 135 | 3.0 | 4.0 | 0.00 | 0.00 | 0.00 | 88 | 1011.3 |
| 20260507204718 | 74 | 135 | 3.0 | 4.0 | 0.00 | 0.00 | 0.00 | 87 | 1011.2 |
| 20260507203217 | 74 | 135 | 5.0 | 6.0 | 0.00 | 0.00 | 0.00 | 87 | 1011.1 |
| 20260507201717 | 74 | 135 | 4.0 | 5.0 | 0.00 | 0.00 | 0.00 | 87 | 1011.0 |
| 20260507200218 | 74 | 135 | 3.0 | 5.0 | 0.00 | 0.00 | 0.00 | 87 | 1010.8 |
| 20260507194717 | 74 | 135 | 3.0 | 3.0 | 0.00 | 0.00 | 0.00 | 87 | 1010.8 |
| 20260507193218 | 0 | 0.0 | 0.0 | 0.00 | 0.00 | 0.00 | |||
| 20260507191717 | 74 | 135 | 1.0 | 2.0 | 0.00 | 0.00 | 0.00 | 87 | 1011.0 |
| 20260507190217 | 0 | 0.0 | 0.0 | 0.00 | 0.00 | 0.00 | |||
| 20260507184717 | 75 | 0.0 | 0.0 | 0.00 | 0.00 | 0.00 | 86 | 1011.3 | |
| 20260507183218 | 0 | 0.0 | 0.0 | 0.00 | 0.00 | 0.00 | |||
| 20260507181717 | 75 | 180 | 0.0 | 2.0 | 0.00 | 0.00 | 0.00 | 86 | 1011.7 |
| 20260507180218 | 75 | 180 | 1.0 | 3.0 | 0.00 | 0.00 | 0.00 | 87 | 1011.7 |
| 20260507174717 | 75 | 180 | 1.0 | 3.0 | 0.00 | 0.00 | 0.00 | 87 | 1011.8 |
| 20260507173217 | 75 | 135 | 1.0 | 3.0 | 0.00 | 0.00 | 0.00 | 86 | 1011.8 |
| 20260507171718 | 75 | 90 | 1.0 | 4.0 | 0.00 | 0.00 | 0.00 | 86 | 1011.8 |
| 20260507170218 | 75 | 90 | 3.0 | 4.0 | 0.00 | 0.00 | 0.00 | 87 | 1012.1 |
| 20260507164717 | 75 | 90 | 4.0 | 7.0 | 0.00 | 0.00 | 0.00 | 86 | 1012.1 |
| 20260507163218 | 0 | 0.0 | 0.0 | 0.00 | 0.00 | 0.00 | |||
| 20260507161718 | 75 | 90 | 3.0 | 6.0 | 0.00 | 0.00 | 0.00 | 86 | 1012.3 |
| 20260507160218 | 75 | 90 | 1.0 | 3.0 | 0.00 | 0.00 | 0.00 | 85 | 1012.3 |
| 20260507154718 | 75 | 90 | 3.0 | 6.0 | 0.00 | 0.00 | 0.00 | 85 | 1012.3 |
| 20260507153219 | 75 | 90 | 3.0 | 6.0 | 0.00 | 0.00 | 0.00 | 85 | 1012.5 |
| 20260507151717 | 75 | 90 | 2.0 | 4.0 | 0.00 | 0.00 | 0.00 | 85 | 1012.7 |
| 20260507150218 | 0 | 0.0 | 0.0 | 0.00 | 0.00 | 0.00 | |||
| 20260507144718 | 75 | 135 | 3.0 | 6.0 | 0.00 | 0.00 | 0.00 | 85 | 1012.6 |
| 20260507143218 | 75 | 90 | 4.0 | 6.0 | 0.00 | 0.00 | 0.00 | 85 | 1012.3 |
| 20260507141718 | 75 | 135 | 4.0 | 7.0 | 0.00 | 0.00 | 0.00 | 85 | 1012.3 |
| 20260507140218 | 75 | 135 | 3.0 | 6.0 | 0.00 | 0.00 | 0.00 | 85 | 1012.3 |
| 20260507134717 | 75 | 135 | 4.0 | 8.0 | 0.00 | 0.00 | 0.00 | 85 | 1012.2 |
| 20260507133218 | 75 | 135 | 3.0 | 7.0 | 0.00 | 0.00 | 0.00 | 85 | 1011.8 |
| 20260507131717 | 0 | 0.0 | 0.0 | 0.00 | 0.00 | 0.00 | |||
| 20260507130217 | 75 | 135 | 4.0 | 6.0 | 0.00 | 0.00 | 0.00 | 84 | 1011.5 |
| 20260507124718 | 75 | 135 | 5.0 | 7.0 | 0.00 | 0.00 | 0.00 | 84 | 1011.3 |
| 20260507123219 | 75 | 135 | 5.0 | 7.0 | 0.00 | 0.00 | 0.00 | 84 | 1011.1 |
| 20260507121718 | 75 | 135 | 6.0 | 8.0 | 0.00 | 0.00 | 0.00 | 83 | 1011.2 |
| 20260507120218 | 75 | 135 | 7.0 | 10.0 | 0.00 | 0.00 | 0.00 | 83 | 1010.8 |
| 20260507114718 | 75 | 135 | 7.0 | 10.0 | 0.00 | 0.00 | 0.00 | 82 | 1010.7 |
| 20260507113218 | 75 | 135 | 7.0 | 9.0 | 0.00 | 0.00 | 0.00 | 82 | 1010.6 |
| 20260507111718 | 76 | 135 | 8.0 | 11.0 | 0.00 | 0.00 | 0.00 | 82 | 1010.6 |
| 20260507110219 | 76 | 135 | 9.0 | 14.0 | 0.00 | 0.00 | 0.00 | 82 | 1010.5 |
| 20260507104718 | 76 | 135 | 10.0 | 13.0 | 0.00 | 0.00 | 0.00 | 80 | 1010.3 |
| 20260507103218 | 76 | 135 | 9.0 | 13.0 | 0.00 | 0.00 | 0.00 | 79 | 1010.1 |
| 20260507101717 | 76 | 135 | 9.0 | 13.0 | 0.00 | 0.00 | 0.00 | 78 | 1010.1 |
| 20260507100217 | 77 | 135 | 10.0 | 13.0 | 0.00 | 0.00 | 0.00 | 76 | 1009.8 |
| 20260507094718 | 77 | 135 | 9.0 | 13.0 | 0.00 | 0.00 | 0.00 | 76 | 1010.0 |
| 20260507093219 | 77 | 135 | 10.0 | 13.0 | 0.00 | 0.00 | 0.00 | 74 | 1010.0 |
| 20260507091718 | 78 | 135 | 10.0 | 14.0 | 0.00 | 0.00 | 0.00 | 74 | 1009.7 |
| 20260507090218 | 78 | 135 | 9.0 | 12.0 | 0.00 | 0.00 | 0.00 | 72 | 1009.7 |
| 20260507084717 | 78 | 135 | 9.0 | 11.0 | 0.00 | 0.00 | 0.00 | 71 | 1009.7 |
| 20260507083217 | 78 | 135 | 9.0 | 13.0 | 0.00 | 0.00 | 0.00 | 70 | 1009.7 |
| 20260507081718 | 78 | 135 | 9.0 | 11.0 | 0.00 | 0.00 | 0.00 | 70 | 1009.8 |
| 20260507080219 | 78 | 135 | 9.0 | 13.0 | 0.00 | 0.00 | 0.00 | 70 | 1010.2 |
| 20260507074718 | 79 | 135 | 9.0 | 13.0 | 0.00 | 0.00 | 0.00 | 70 | 1010.2 |
| 20260507073218 | 0 | 0.0 | 0.0 | 0.00 | 0.00 | 0.00 | |||
| 20260507071717 | 78 | 135 | 10.0 | 14.0 | 0.00 | 0.00 | 0.00 | 70 | 1010.5 |
| 20260507070217 | 78 | 135 | 11.0 | 16.0 | 0.00 | 0.00 | 0.00 | 70 | 1010.7 |
| 20260507064717 | 79 | 135 | 11.0 | 16.0 | 0.00 | 0.00 | 0.00 | 69 | 1010.7 |
| 20260507063218 | 80 | 135 | 12.0 | 17.0 | 0.00 | 0.00 | 0.00 | 68 | 1011.0 |
| 20260507061717 | 80 | 135 | 11.0 | 15.0 | 0.00 | 0.00 | 0.00 | 66 | 1011.2 |
| 20260507060219 | 0 | 0.0 | 0.0 | 0.00 | 0.00 | 0.00 | |||
| 20260507054718 | 80 | 135 | 10.0 | 14.0 | 0.00 | 0.00 | 0.00 | 69 | 1011.3 |
| 20260507053218 | 80 | 135 | 10.0 | 14.0 | 0.00 | 0.00 | 0.00 | 69 | 1011.5 |
| 20260507051718 | 0 | 0.0 | 0.0 | 0.00 | 0.00 | 0.00 | |||
| 20260507050219 | 79 | 135 | 12.0 | 16.0 | 0.00 | 0.00 | 0.00 | 69 | 1011.7 |
| 20260507044717 | 80 | 135 | 13.0 | 16.0 | 0.00 | 0.00 | 0.00 | 69 | 1011.7 |
| 20260507043218 | 0 | 0.0 | 0.0 | 0.00 | 0.00 | 0.00 | |||
| 20260507041717 | 80 | 135 | 11.0 | 14.0 | 0.00 | 0.00 | 0.00 | 69 | 1012.2 |